Location: Newark
(51.1667°N, 4.6667°W)
Time: 16:23:17
(UTC+00:00)

Envisat - Visible Passes

Search period start: 17 February 2020 00:00
Search period end: 27 February 2020 00:00
Orbit: 764 x 766 km, 98.1° (Epoch: 17 February)

Date Brightness Start Highest point End Pass type
(mag) Time Alt. Az. Time Alt. Az. Time Alt. Az.
17 Feb 6.6 05:21:33 10° ENE 05:22:34 11° E 05:23:36 10° E visible
17 Feb 3.8 18:17:19 10° S 18:22:19 58° W 18:27:21 10° NNW visible
18 Feb 4.9 06:21:00 10° NNE 06:25:38 34° E 06:30:14 10° SSE visible
18 Feb 6.0 19:21:34 10° SW 19:25:05 19° W 19:28:38 10° NW visible
19 Feb 6.1 05:45:04 10° NE 05:48:28 18° E 05:51:51 10° SE visible
19 Feb 4.8 18:43:17 10° SSW 18:47:56 36° W 18:52:38 10° NNW visible
20 Feb 4.0 06:46:15 10° NNE 06:51:16 55° E 06:56:14 10° S visible
20 Feb 6.5 19:49:26 10° W 19:50:58 11° W 19:52:30 10° WNW visible
21 Feb 5.3 06:09:52 10° NE 06:14:14 28° E 06:18:35 10° SSE visible
21 Feb 5.7 19:09:41 10° SW 19:13:39 23° W 19:17:39 10° NW visible
22 Feb 6.4 05:34:16 10° NE 05:37:00 14° E 05:39:44 10° ESE visible
22 Feb 4.4 18:31:44 10° S 18:36:34 44° W 18:41:26 10° NNW visible
23 Feb 4.4 06:35:01 10° NNE 06:39:55 45° E 06:44:46 10° S visible
23 Feb 6.3 19:36:51 10° WSW 19:39:29 14° W 19:42:08 10° NW visible
24 Feb 5.7 05:58:47 10° NE 06:02:50 23° E 06:06:50 10° SE visible
24 Feb 5.4 18:57:56 10° SSW 19:02:14 27° W 19:06:35 10° NW visible
25 Feb 6.6 05:23:49 10° ENE 05:25:32 12° E 05:27:14 10° ESE visible
25 Feb 4.0 18:20:15 10° S 18:25:12 54° W 18:30:13 10° NNW visible
26 Feb 4.8 06:23:49 10° NNE 06:28:32 37° E 06:33:13 10° SSE visible
26 Feb 6.1 19:24:42 10° SW 19:28:01 17° W 19:31:21 10° NW visible
